Regional Weather Roundup
Issued by NWS

Home | Current Version | Previous Version | Text Only | Print | Product List | Glossary On
Versions: 1 2 3 4 5 6 7 8 9 10 11 12 13 14 15 16 17 18 19 20 21 22 23 24 25 26 27
000
ASUS44 KJAN 270820
RWRMS

MISSISSIPPI HOURLY WEATHER ROUNDUP
NATIONAL WEATHER SERVICE JACKSON MS
300 AM CDT SAT AUG 27 2016

NOTE: "FAIR: INDICATES FEW OR NO CLOUDS BELOW 12,000 FEET WITH NO
SIGNIFICANT WEATHER AND/OR OBSTRUCTIONS TO VISIBILITY.

MSZ001>002-007>008-010>013-018>021-025>028-034>036-270900-
NORTHWEST MISSISSIPPI

CITY           SKY/WX    TMP DP  RH WIND       PRES   REMARKS
CLARKSDALE       N/A     73  73 100 CALM      30.00F
GREENWOOD      CLEAR     75  71  87 CALM      30.00F
GREENVILLE     CLOUDY    75  73  93 E5        29.99F
OXFORD         FAIR      70  68  94 E5        30.04F
TUNICA         MOSUNNY   70  70 100 CALM      30.02S FOG
$$

MSZ003>006-009-014>017-022>024-029>033-037>039-270900-
NORTHEAST MISSISSIPPI

CITY           SKY/WX    TMP DP  RH WIND       PRES   REMARKS
COLUMBUS AFB   CLEAR     72  72 100 CALM      30.01F
CORINTH        FOG       70  68  94 CALM      30.03F VSB 1/2
GOLDN TRIANGLE CLOUDY    73  66  78 N3        30.01F VSB 1
TUPELO         CLEAR     72  69  90 N3        30.03F
$$

MSZ040-058-270900-
CENTRAL MISSISSIPPI

CITY           SKY/WX    TMP DP  RH WIND       PRES   REMARKS
JACKSON INTL   CLEAR     76  73  91 CALM      30.00F
JACKSON HAWKNS CLEAR     75  73  93 CALM      30.01S
MERIDIAN KEY   CLEAR     73  70  90 CALM      30.01F
MERIDIAN NAS   CLEAR     72  67  84 CALM      30.01F
$$

MSZ059>079-270900-
SOUTH MISSISSIPPI

CITY           SKY/WX    TMP DP  RH WIND       PRES   REMARKS
BROOKHAVEN     FAIR     N/A N/A N/A CALM      30.01F HAZE
HATTIESBURG    MOCLDY    75  72  90 CALM      30.01S
MCCOMB         CLEAR     74  71  91 CALM      30.00F
NATCHEZ        CLEAR     75  70  83 SE5       29.98F
PINE BELT      CLEAR     72  68  88 CALM      30.01S
$$

MSZ080>082-270900-
COASTAL MISSISSIPPI

CITY           SKY/WX    TMP DP  RH WIND       PRES   REMARKS
BILOXI         CLOUDY    77  77  99 NE5       29.97S
PASCAGOULA     CLEAR     75  75 100 N3        29.97F
GULFPORT       MOCLDY    77  76  96 N3        29.96F
$$

LAZ007>009-015>016-023>026-270900-
NORTHEAST LOUISIANA

CITY           SKY/WX    TMP DP  RH WIND       PRES   REMARKS
BASTROP        FAIR      73  73  98 CALM      29.99F
TALLULAH/VBURG CLEAR     73  71  93 CALM      29.99S FOG
$$




USA.gov is the U.S. government's official web portal to all federal, state and local government web resources and services.